Location: Archemont
(49.1579°N, 1.7598°E)
Time: 12:31:29
(UTC+00:00)

Transit 2A - Pass Details

Date: 17 April 2024
Orbit: 593 x 958 km, 66.7° (Epoch: 30 May)

Event Time Altitude Azimuth Distance (km) Brightness Sun altitude
Rises 11:46:57 0° 316° (NW) 3,050 8.8 51.6°
Reaches altitude 10° 11:51:09 10° 352° (N) 2,229 8.1 51.6°
Maximum altitude 11:52:40 11° 9° (N) 2,181 8.1 51.6°
Drops below altitude 10° 11:54:13 10° 27° (NNE) 2,302 8.2 51.6°
Sets 11:58:48 0° 61° (ENE) 3,340 9.1 51.6°
